DW0307 Weather Reports


Display with metric or nautical units.
time (UTC)temp
F
wind
direction
speed
MPH
gust
MPH
rain 1hr
in
rain 24hr
in
rain mn
in
humidity
%
barometer
mb
20260504044558 48 182 4.0 8.0 0.00 0.00 0.00 62 1017.6
20260504043052 43 229 1.0 3.0 0.00 0.00 0.00 70 1017.5
20260504041549 39 0 0.0 3.0 0.00 0.00 0.00 74 1017.6
20260504034558 36 196 1.0 3.0 0.00 0.00 0.00 75 1017.7
20260504033126 37 196 2.0 3.0 0.00 0.00 0.00 73 1017.8
20260504031549 39 195 3.0 7.0 0.00 0.00 0.00 75 1017.9
20260504030052 37 174 3.0 8.0 0.00 0.00 0.00 79 1017.9
20260504024556 34 196 6.0 10.0 0.00 0.00 0.00 81 1017.8
20260504023100 32 214 2.0 5.0 0.00 0.00 0.00 79 1017.8
20260504021557 33 207 1.0 5.0 0.00 0.00 0.00 79 1017.9
20260504020057 34 243 1.0 4.0 0.00 0.00 0.00 79 1017.9
20260504014553 34 247 2.0 4.0 0.00 0.00 0.00 79 1017.9
20260504013104 34 247 2.0 4.0 0.00 0.00 0.00 79 1018.0
20260504011548 34 205 0.0 3.0 0.00 0.00 0.00 78 1018.0
20260504010054 34 0 0.0 3.0 0.00 0.00 0.00 76 1018.2
20260504004605 37 205 1.0 3.0 0.00 0.00 0.00 73 1018.1
20260504003042 39 0 0.0 3.0 0.00 0.00 0.00 72 1018.0
20260504001543 40 0 0.0 5.0 0.00 0.00 0.00 73 1018.2
20260504000046 41 196 3.0 5.0 0.00 0.00 0.00 73 1018.3
20260503234551 41 159 2.0 5.0 0.00 0.00 0.00 75 1018.4
20260503233044 39 0 1.0 6.0 0.00 0.00 0.00 74 1018.4
20260503231546 41 215 2.0 4.0 0.00 0.00 0.00 70 1018.4
20260503230046 43 218 3.0 5.0 0.00 0.00 0.00 72 1018.4
20260503224546 42 198 1.0 2.0 0.00 0.00 0.00 72 1018.7
20260503223057 43 198 2.0 8.0 0.00 0.00 0.00 73 1018.7
20260503221551 41 200 4.0 7.0 0.00 0.00 0.00 77 1018.7
20260503220050 39 217 4.0 6.0 0.00 0.00 0.00 78 1018.7
20260503214543 37 238 1.0 3.0 0.00 0.00 0.00 79 1018.8
20260503213100 37 244 1.0 4.0 0.00 0.00 0.00 77 1018.7
20260503211549 38 285 2.0 4.0 0.00 0.00 0.00 76 1018.7
20260503210059 38 286 2.0 3.0 0.00 0.00 0.00 77 1018.7
20260503204554 39 286 1.0 3.0 0.00 0.00 0.00 74 1018.7
20260503203044 40 286 2.0 3.0 0.00 0.00 0.00 74 1018.8
20260503201547 41 286 2.0 4.0 0.00 0.00 0.00 72 1018.8
20260503200057 43 0 0.0 3.0 0.00 0.00 0.00 71 1018.9
20260503194549 43 0 0.0 4.0 0.00 0.00 0.00 70 1018.8
20260503193052 43 294 2.0 4.0 0.00 0.00 0.00 68 1018.6
20260503191550 47 317 3.0 6.0 0.00 0.00 0.00 62 1018.6
20260503190052 54 114 1.0 3.0 0.00 0.00 0.00 51 1018.5
20260503184557 56 140 1.0 3.0 0.00 0.00 0.00 46 1018.4
20260503183107 58 0 1.0 5.0 0.00 0.00 0.00 43 1018.3
20260503181548 58 229 1.0 3.0 0.00 0.00 0.00 42 1018.1
20260503180050 60 255 3.0 8.0 0.00 0.00 0.00 43 1018.0
20260503174550 59 5 4.0 8.0 0.00 0.00 0.00 43 1017.8
20260503173109 62 184 1.0 10.0 0.00 0.00 0.00 40 1017.8
20260503171545 63 101 5.0 11.0 0.00 0.00 0.00 40 1017.8
20260503081542 63 96 9.0 15.0 0.00 0.00 0.00 43 1021.8
20260503071551 61 205 2.0 7.0 0.00 0.00 0.00 47 1021.9